Terug naar catalogus

STARLINK-37086

ActiefCommunicatieVLEO
NORAD 68253·PAYLOAD·🇺🇸 United States

Gelanceerd Mar 17, 2026 vanaf Vandenberg Space Force Base

Loading…

Volgende Passages (komende 24 uur)

TLE

VersSource: CelesTrak SupGP

Epoch: Sep 15, 2026, 03:52 UTC

1 68253C 26054X   26258.16159722  .00029102  00000+0  85994-3 0  2586
2 68253  53.1564 126.8951 0001256  84.4035 153.9132 15.34371936    17

Volg STARLINK-37086 in realtime met AllMySat

Download on the App Store